Location: Janesville
(42.6830°N, 89.0190°W)
Time: 15:34:16
(UTC-05:00)

Hubble Space Telescope - Visible Passes

Search period start: 30 May 2015 00:00
Search period end: 09 June 2015 00:00
Orbit: 542 x 546 km, 28.5° (Epoch: 29 May)

Date Brightness Start Highest point End Pass type
(mag) Time Alt. Az. Time Alt. Az. Time Alt. Az.
06 Jun 3.0 04:10:04 10° S 04:10:52 10° S 04:11:41 10° SSE visible
07 Jun 2.9 04:01:29 11° S 04:02:00 11° S 04:03:11 10° SSE visible
08 Jun 2.9 03:53:13 11° S 03:53:13 11° S 03:54:26 10° SSE visible
